<?xml version="1.0" encoding="UTF-8" standalone="no" ?>
<gpx xmlns="http://www.topografix.com/GPX/1/1" xmlns:xsi="http://www.w3.org/2001/XMLSchema-instance" xsi:schemaLocation="http://www.topografix.com/GPX/1/1 http://www.topografix.com/GPX/1/1/gpx.xsd" version="1.1" creator="VisuGPX - https://www.visugpx.com">
  <metadata>
    <name>Rando faite sur circuit 89 à 95 d\\\'Olima</name>
    <desc><![CDATA[Assez difficile.....]]></desc>
  </metadata>
  <trk>
    <name><![CDATA[rando FFC 38 kms D+900]]></name>
    <trkseg>
      <trkpt lat="48.15768" lon="6.36491">
        <ele>392.875702</ele>
        <time>2008-01-22T00:00:00Z</time>
      </trkpt>
      <trkpt lat="48.15768" lon="6.36492">
        <ele>381.17984</ele>
        <time>2008-01-22T00:00:00Z</time>
      </trkpt>
      <trkpt lat="48.15721" lon="6.36471">
        <ele>380.954895</ele>
        <time>2008-01-22T00:00:00Z</time>
      </trkpt>
      <trkpt lat="48.15535" lon="6.36531">
        <ele>386.172241</ele>
        <time>2008-01-22T00:00:00Z</time>
      </trkpt>
      <trkpt lat="48.15383" lon="6.36637">
        <ele>389.750275</ele>
        <time>2008-01-22T00:00:00Z</time>
      </trkpt>
      <trkpt lat="48.15371" lon="6.36651">
        <ele>390.784149</ele>
        <time>2008-01-22T00:00:00Z</time>
      </trkpt>
      <trkpt lat="48.15329" lon="6.37127">
        <ele>430.526947</ele>
        <time>2008-01-22T00:00:00Z</time>
      </trkpt>
      <trkpt lat="48.15303" lon="6.37136">
        <ele>429.035339</ele>
        <time>2008-01-22T00:00:00Z</time>
      </trkpt>
      <trkpt lat="48.15292" lon="6.37156">
        <ele>428.384674</ele>
        <time>2008-01-22T00:00:00Z</time>
      </trkpt>
      <trkpt lat="48.15227" lon="6.37295">
        <ele>423.78479</ele>
        <time>2008-01-22T00:00:00Z</time>
      </trkpt>
      <trkpt lat="48.15206" lon="6.37303">
        <ele>421.92572</ele>
        <time>2008-01-22T00:00:00Z</time>
      </trkpt>
      <trkpt lat="48.15187" lon="6.37296">
        <ele>419.524811</ele>
        <time>2008-01-22T00:00:00Z</time>
      </trkpt>
      <trkpt lat="48.15182" lon="6.37279">
        <ele>417.829224</ele>
        <time>2008-01-22T00:00:00Z</time>
      </trkpt>
      <trkpt lat="48.15098" lon="6.3744">
        <ele>418.087891</ele>
        <time>2008-01-22T00:00:00Z</time>
      </trkpt>
      <trkpt lat="48.15057" lon="6.37354">
        <ele>416.740875</ele>
        <time>2008-01-22T00:00:00Z</time>
      </trkpt>
      <trkpt lat="48.15025" lon="6.3731">
        <ele>414.1138</ele>
        <time>2008-01-22T00:00:00Z</time>
      </trkpt>
      <trkpt lat="48.14973" lon="6.37224">
        <ele>410.439575</ele>
        <time>2008-01-22T00:00:00Z</time>
      </trkpt>
      <trkpt lat="48.14947" lon="6.37192">
        <ele>408.274994</ele>
        <time>2008-01-22T00:00:00Z</time>
      </trkpt>
      <trkpt lat="48.14935" lon="6.37002">
        <ele>393.628662</ele>
        <time>2008-01-22T00:00:00Z</time>
      </trkpt>
      <trkpt lat="48.14896" lon="6.37133">
        <ele>398.388275</ele>
        <time>2008-01-22T00:00:00Z</time>
      </trkpt>
      <trkpt lat="48.1489" lon="6.37221">
        <ele>405.038269</ele>
        <time>2008-01-22T00:00:00Z</time>
      </trkpt>
      <trkpt lat="48.14886" lon="6.37271">
        <ele>405.328888</ele>
        <time>2008-01-22T00:00:00Z</time>
      </trkpt>
      <trkpt lat="48.14874" lon="6.37306">
        <ele>399.664154</ele>
        <time>2008-01-22T00:00:00Z</time>
      </trkpt>
      <trkpt lat="48.14869" lon="6.37387">
        <ele>399.946503</ele>
        <time>2008-01-22T00:00:00Z</time>
      </trkpt>
      <trkpt lat="48.1485" lon="6.37392">
        <ele>400.225922</ele>
        <time>2008-01-22T00:00:00Z</time>
      </trkpt>
      <trkpt lat="48.14821" lon="6.37402">
        <ele>398.335205</ele>
        <time>2008-01-22T00:00:00Z</time>
      </trkpt>
      <trkpt lat="48.14788" lon="6.37545">
        <ele>401.955322</ele>
        <time>2008-01-22T00:00:00Z</time>
      </trkpt>
      <trkpt lat="48.14802" lon="6.37557">
        <ele>406.064697</ele>
        <time>2008-01-22T00:00:00Z</time>
      </trkpt>
      <trkpt lat="48.1481" lon="6.37571">
        <ele>408.402466</ele>
        <time>2008-01-22T00:00:00Z</time>
      </trkpt>
      <trkpt lat="48.14808" lon="6.37626">
        <ele>411.802917</ele>
        <time>2008-01-22T00:00:00Z</time>
      </trkpt>
      <trkpt lat="48.14816" lon="6.37693">
        <ele>418.957214</ele>
        <time>2008-01-22T00:00:00Z</time>
      </trkpt>
      <trkpt lat="48.14818" lon="6.37759">
        <ele>423.228424</ele>
        <time>2008-01-22T00:00:00Z</time>
      </trkpt>
      <trkpt lat="48.14837" lon="6.37806">
        <ele>427.031158</ele>
        <time>2008-01-22T00:00:00Z</time>
      </trkpt>
      <trkpt lat="48.14872" lon="6.37827">
        <ele>429.626678</ele>
        <time>2008-01-22T00:00:00Z</time>
      </trkpt>
      <trkpt lat="48.14887" lon="6.37841">
        <ele>430.952972</ele>
        <time>2008-01-22T00:00:00Z</time>
      </trkpt>
      <trkpt lat="48.14895" lon="6.37861">
        <ele>431.638977</ele>
        <time>2008-01-22T00:00:00Z</time>
      </trkpt>
      <trkpt lat="48.14909" lon="6.37859">
        <ele>432.624634</ele>
        <time>2008-01-22T00:00:00Z</time>
      </trkpt>
      <trkpt lat="48.14921" lon="6.37841">
        <ele>432.822205</ele>
        <time>2008-01-22T00:00:00Z</time>
      </trkpt>
      <trkpt lat="48.14935" lon="6.37833">
        <ele>433.104675</ele>
        <time>2008-01-22T00:00:00Z</time>
      </trkpt>
      <trkpt lat="48.14962" lon="6.37839">
        <ele>434.502228</ele>
        <time>2008-01-22T00:00:00Z</time>
      </trkpt>
      <trkpt lat="48.15045" lon="6.37923">
        <ele>440.081909</ele>
        <time>2008-01-22T00:00:00Z</time>
      </trkpt>
      <trkpt lat="48.15055" lon="6.37949">
        <ele>441.810028</ele>
        <time>2008-01-22T00:00:00Z</time>
      </trkpt>
      <trkpt lat="48.15058" lon="6.37981">
        <ele>443.587799</ele>
        <time>2008-01-22T00:00:00Z</time>
      </trkpt>
      <trkpt lat="48.1507" lon="6.38015">
        <ele>445.071991</ele>
        <time>2008-01-22T00:00:00Z</time>
      </trkpt>
      <trkpt lat="48.1512" lon="6.38098">
        <ele>447.961365</ele>
        <time>2008-01-22T00:00:00Z</time>
      </trkpt>
      <trkpt lat="48.15181" lon="6.38188">
        <ele>450.910217</ele>
        <time>2008-01-22T00:00:00Z</time>
      </trkpt>
      <trkpt lat="48.15206" lon="6.38207">
        <ele>451.861542</ele>
        <time>2008-01-22T00:00:00Z</time>
      </trkpt>
      <trkpt lat="48.15216" lon="6.38225">
        <ele>452.773956</ele>
        <time>2008-01-22T00:00:00Z</time>
      </trkpt>
      <trkpt lat="48.15248" lon="6.3831">
        <ele>455.687073</ele>
        <time>2008-01-22T00:00:00Z</time>
      </trkpt>
      <trkpt lat="48.15265" lon="6.38387">
        <ele>455.957031</ele>
        <time>2008-01-22T00:00:00Z</time>
      </trkpt>
      <trkpt lat="48.15269" lon="6.38463">
        <ele>455.13031</ele>
        <time>2008-01-22T00:00:00Z</time>
      </trkpt>
      <trkpt lat="48.15265" lon="6.38535">
        <ele>452.479553</ele>
        <time>2008-01-22T00:00:00Z</time>
      </trkpt>
      <trkpt lat="48.15271" lon="6.38594">
        <ele>450.670624</ele>
        <time>2008-01-22T00:00:00Z</time>
      </trkpt>
      <trkpt lat="48.15319" lon="6.38622">
        <ele>451.458771</ele>
        <time>2008-01-22T00:00:00Z</time>
      </trkpt>
      <trkpt lat="48.15321" lon="6.38636">
        <ele>450.900879</ele>
        <time>2008-01-22T00:00:00Z</time>
      </trkpt>
      <trkpt lat="48.15225" lon="6.3884">
        <ele>452.459442</ele>
        <time>2008-01-22T00:00:00Z</time>
      </trkpt>
      <trkpt lat="48.15124" lon="6.39059">
        <ele>460.065002</ele>
        <time>2008-01-22T00:00:00Z</time>
      </trkpt>
      <trkpt lat="48.15105" lon="6.39081">
        <ele>460</ele>
        <time>2008-01-22T00:00:00Z</time>
      </trkpt>
      <trkpt lat="48.15019" lon="6.3913">
        <ele>455.396759</ele>
        <time>2008-01-22T00:00:00Z</time>
      </trkpt>
      <trkpt lat="48.14979" lon="6.39159">
        <ele>453.973175</ele>
        <time>2008-01-22T00:00:00Z</time>
      </trkpt>
      <trkpt lat="48.14919" lon="6.39212">
        <ele>451.48046875</ele>
      </trkpt>
      <trkpt lat="48.14883" lon="6.39256">
        <ele>453.578125</ele>
      </trkpt>
      <trkpt lat="48.14838" lon="6.39308">
        <ele>456.9296875</ele>
      </trkpt>
      <trkpt lat="48.1481" lon="6.39342">
        <ele>458.1484375</ele>
      </trkpt>
      <trkpt lat="48.14738" lon="6.39371">
        <ele>459.04296875</ele>
      </trkpt>
      <trkpt lat="48.14671" lon="6.39397">
        <ele>461.1171875</ele>
      </trkpt>
      <trkpt lat="48.14612" lon="6.39425">
        <ele>462.83984375</ele>
      </trkpt>
      <trkpt lat="48.14616" lon="6.39371">
        <ele>461.609375</ele>
      </trkpt>
      <trkpt lat="48.14618" lon="6.39306">
        <ele>458.84375</ele>
      </trkpt>
      <trkpt lat="48.14503" lon="6.39285">
        <ele>459.99609375</ele>
      </trkpt>
      <trkpt lat="48.1444" lon="6.39282">
        <ele>461.234375</ele>
      </trkpt>
      <trkpt lat="48.14379" lon="6.39262">
        <ele>460.10546875</ele>
      </trkpt>
      <trkpt lat="48.14323" lon="6.39236">
        <ele>458.6640625</ele>
      </trkpt>
      <trkpt lat="48.14229" lon="6.39132">
        <ele>454.8046875</ele>
      </trkpt>
      <trkpt lat="48.14156" lon="6.39199">
        <ele>458.53125</ele>
      </trkpt>
      <trkpt lat="48.14107" lon="6.39254">
        <ele>460.51953125</ele>
      </trkpt>
      <trkpt lat="48.14077" lon="6.39282">
        <ele>461.5390625</ele>
      </trkpt>
      <trkpt lat="48.14016" lon="6.39298">
        <ele>461.8984375</ele>
      </trkpt>
      <trkpt lat="48.13962" lon="6.39275">
        <ele>460.734375</ele>
      </trkpt>
      <trkpt lat="48.13929" lon="6.39262">
        <ele>460.296875</ele>
      </trkpt>
      <trkpt lat="48.13904" lon="6.39272">
        <ele>460.546875</ele>
      </trkpt>
      <trkpt lat="48.1387" lon="6.39285">
        <ele>460.63671875</ele>
      </trkpt>
      <trkpt lat="48.13856" lon="6.3929">
        <ele>460.59375</ele>
      </trkpt>
      <trkpt lat="48.13804" lon="6.39342">
        <ele>459.02734375</ele>
      </trkpt>
      <trkpt lat="48.13761" lon="6.39399">
        <ele>454.39453125</ele>
      </trkpt>
      <trkpt lat="48.13737" lon="6.39464">
        <ele>450.44921875</ele>
      </trkpt>
      <trkpt lat="48.13703" lon="6.39433">
        <ele>453.796875</ele>
      </trkpt>
      <trkpt lat="48.13665" lon="6.39405">
        <ele>457.0859375</ele>
      </trkpt>
      <trkpt lat="48.13629" lon="6.39399">
        <ele>458.73046875</ele>
      </trkpt>
      <trkpt lat="48.13615" lon="6.39384">
        <ele>460.30078125</ele>
      </trkpt>
      <trkpt lat="48.1355" lon="6.39371">
        <ele>463.50390625</ele>
      </trkpt>
      <trkpt lat="48.13544" lon="6.3934">
        <ele>465.8046875</ele>
      </trkpt>
      <trkpt lat="48.13491" lon="6.39342">
        <ele>467.140625</ele>
      </trkpt>
      <trkpt lat="48.13435" lon="6.39337">
        <ele>468.78515625</ele>
      </trkpt>
      <trkpt lat="48.13349" lon="6.39303">
        <ele>470.32421875</ele>
      </trkpt>
      <trkpt lat="48.13293" lon="6.39212">
        <ele>468.1640625</ele>
      </trkpt>
      <trkpt lat="48.13218" lon="6.39264">
        <ele>465.42578125</ele>
      </trkpt>
      <trkpt lat="48.13137" lon="6.3909">
        <ele>459.8359375</ele>
      </trkpt>
      <trkpt lat="48.13072" lon="6.39028">
        <ele>453.50390625</ele>
      </trkpt>
      <trkpt lat="48.12968" lon="6.38978">
        <ele>445.03125</ele>
      </trkpt>
      <trkpt lat="48.12855" lon="6.38971">
        <ele>438.8828125</ele>
      </trkpt>
      <trkpt lat="48.12787" lon="6.38973">
        <ele>436.5859375</ele>
      </trkpt>
      <trkpt lat="48.12751" lon="6.38984">
        <ele>435.40625</ele>
      </trkpt>
      <trkpt lat="48.12717" lon="6.39023">
        <ele>434.27734375</ele>
      </trkpt>
      <trkpt lat="48.12641" lon="6.39028">
        <ele>431.37890625</ele>
      </trkpt>
      <trkpt lat="48.12629" lon="6.39121">
        <ele>431.35546875</ele>
      </trkpt>
      <trkpt lat="48.12612" lon="6.39171">
        <ele>432.3046875</ele>
      </trkpt>
      <trkpt lat="48.12485" lon="6.39088">
        <ele>433.5703125</ele>
      </trkpt>
      <trkpt lat="48.12239" lon="6.38958">
        <ele>444.65625</ele>
      </trkpt>
      <trkpt lat="48.12235" lon="6.38989">
        <ele>443.5625</ele>
      </trkpt>
      <trkpt lat="48.12223" lon="6.39012">
        <ele>443.04296875</ele>
      </trkpt>
      <trkpt lat="48.12126" lon="6.39033">
        <ele>441.64453125</ele>
      </trkpt>
      <trkpt lat="48.12045" lon="6.39145">
        <ele>440.17578125</ele>
      </trkpt>
      <trkpt lat="48.11998" lon="6.39298">
        <ele>445.1171875</ele>
      </trkpt>
      <trkpt lat="48.11984" lon="6.39386">
        <ele>448.1796875</ele>
      </trkpt>
      <trkpt lat="48.11987" lon="6.39423">
        <ele>449.046875</ele>
      </trkpt>
      <trkpt lat="48.12018" lon="6.39503">
        <ele>450.25</ele>
      </trkpt>
      <trkpt lat="48.12036" lon="6.39553">
        <ele>451.04296875</ele>
      </trkpt>
      <trkpt lat="48.12036" lon="6.39586">
        <ele>450.875</ele>
      </trkpt>
      <trkpt lat="48.12018" lon="6.39711">
        <ele>451.04296875</ele>
      </trkpt>
      <trkpt lat="48.12004" lon="6.39773">
        <ele>451.53125</ele>
      </trkpt>
      <trkpt lat="48.12002" lon="6.39844">
        <ele>452.59375</ele>
      </trkpt>
      <trkpt lat="48.12009" lon="6.39872">
        <ele>452.65234375</ele>
      </trkpt>
      <trkpt lat="48.11979" lon="6.39945">
        <ele>455.0625</ele>
      </trkpt>
      <trkpt lat="48.11963" lon="6.40002">
        <ele>455.5625</ele>
      </trkpt>
      <trkpt lat="48.11945" lon="6.40098">
        <ele>456.4609375</ele>
      </trkpt>
      <trkpt lat="48.11927" lon="6.40158">
        <ele>456.73828125</ele>
      </trkpt>
      <trkpt lat="48.11922" lon="6.40192">
        <ele>457.1328125</ele>
      </trkpt>
      <trkpt lat="48.11922" lon="6.40275">
        <ele>456.328125</ele>
      </trkpt>
      <trkpt lat="48.11932" lon="6.40355">
        <ele>454.9453125</ele>
      </trkpt>
      <trkpt lat="48.11929" lon="6.40415">
        <ele>453.37109375</ele>
      </trkpt>
      <trkpt lat="48.11907" lon="6.40478">
        <ele>451.45703125</ele>
      </trkpt>
      <trkpt lat="48.11888" lon="6.40543">
        <ele>450.2421875</ele>
      </trkpt>
      <trkpt lat="48.11884" lon="6.40597">
        <ele>449.859375</ele>
      </trkpt>
      <trkpt lat="48.11902" lon="6.40631">
        <ele>450.2578125</ele>
      </trkpt>
      <trkpt lat="48.11929" lon="6.4067">
        <ele>450.734375</ele>
      </trkpt>
      <trkpt lat="48.1197" lon="6.40706">
        <ele>451.51953125</ele>
      </trkpt>
      <trkpt lat="48.12017" lon="6.40745">
        <ele>450.65234375</ele>
      </trkpt>
      <trkpt lat="48.12047" lon="6.40771">
        <ele>450.1796875</ele>
      </trkpt>
      <trkpt lat="48.1208" lon="6.40821">
        <ele>449.88671875</ele>
      </trkpt>
      <trkpt lat="48.12087" lon="6.40898">
        <ele>449.73828125</ele>
      </trkpt>
      <trkpt lat="48.12098" lon="6.41002">
        <ele>447.66015625</ele>
      </trkpt>
      <trkpt lat="48.12092" lon="6.41083">
        <ele>446.03125</ele>
      </trkpt>
      <trkpt lat="48.12074" lon="6.41197">
        <ele>444.93359375</ele>
      </trkpt>
      <trkpt lat="48.12065" lon="6.4127">
        <ele>444.29296875</ele>
      </trkpt>
      <trkpt lat="48.12112" lon="6.41314">
        <ele>445.37109375</ele>
      </trkpt>
      <trkpt lat="48.12139" lon="6.41332">
        <ele>446.15625</ele>
      </trkpt>
      <trkpt lat="48.12159" lon="6.4133">
        <ele>446.82421875</ele>
      </trkpt>
      <trkpt lat="48.12197" lon="6.41351">
        <ele>447.3359375</ele>
      </trkpt>
      <trkpt lat="48.12206" lon="6.41306">
        <ele>447.46484375</ele>
      </trkpt>
      <trkpt lat="48.12261" lon="6.41249">
        <ele>445.25</ele>
      </trkpt>
      <trkpt lat="48.12295" lon="6.41254">
        <ele>444.203125</ele>
      </trkpt>
      <trkpt lat="48.1231" lon="6.41273">
        <ele>443.7890625</ele>
      </trkpt>
      <trkpt lat="48.1239" lon="6.41296">
        <ele>441.1171875</ele>
      </trkpt>
      <trkpt lat="48.12468" lon="6.41351">
        <ele>442.828125</ele>
      </trkpt>
      <trkpt lat="48.12581" lon="6.41452">
        <ele>448.2109375</ele>
      </trkpt>
      <trkpt lat="48.12638" lon="6.41487">
        <ele>451.0078125</ele>
      </trkpt>
      <trkpt lat="48.12678" lon="6.41542">
        <ele>448.83984375</ele>
      </trkpt>
      <trkpt lat="48.127" lon="6.41592">
        <ele>446.78125</ele>
      </trkpt>
      <trkpt lat="48.12743" lon="6.41612">
        <ele>444.703125</ele>
      </trkpt>
      <trkpt lat="48.12818" lon="6.41623">
        <ele>441.671875</ele>
      </trkpt>
      <trkpt lat="48.12907" lon="6.41659">
        <ele>438.4296875</ele>
      </trkpt>
      <trkpt lat="48.12975" lon="6.41705">
        <ele>436.00390625</ele>
      </trkpt>
      <trkpt lat="48.13064" lon="6.4176">
        <ele>432.83203125</ele>
      </trkpt>
      <trkpt lat="48.13069" lon="6.41865">
        <ele>431.4140625</ele>
      </trkpt>
      <trkpt lat="48.13069" lon="6.4197">
        <ele>430.3984375</ele>
      </trkpt>
      <trkpt lat="48.13069" lon="6.42076">
        <ele>429.35546875</ele>
      </trkpt>
      <trkpt lat="48.13066" lon="6.42216">
        <ele>427.9453125</ele>
      </trkpt>
      <trkpt lat="48.13064" lon="6.42305">
        <ele>429.05078125</ele>
      </trkpt>
      <trkpt lat="48.13104" lon="6.42294">
        <ele>430.859375</ele>
      </trkpt>
      <trkpt lat="48.13352" lon="6.42457">
        <ele>447.8828125</ele>
      </trkpt>
      <trkpt lat="48.13344" lon="6.42563">
        <ele>451.11328125</ele>
      </trkpt>
      <trkpt lat="48.13357" lon="6.42683">
        <ele>456.33203125</ele>
      </trkpt>
      <trkpt lat="48.13417" lon="6.42761">
        <ele>462.78125</ele>
      </trkpt>
      <trkpt lat="48.13476" lon="6.42758">
        <ele>470.9765625</ele>
      </trkpt>
      <trkpt lat="48.13554" lon="6.42754">
        <ele>477.5</ele>
      </trkpt>
      <trkpt lat="48.13627" lon="6.4282">
        <ele>476.34765625</ele>
      </trkpt>
      <trkpt lat="48.13677" lon="6.42906">
        <ele>477.30078125</ele>
      </trkpt>
      <trkpt lat="48.13702" lon="6.43038">
        <ele>471.484375</ele>
      </trkpt>
      <trkpt lat="48.13715" lon="6.43147">
        <ele>466.6640625</ele>
      </trkpt>
      <trkpt lat="48.13731" lon="6.43213">
        <ele>463.0859375</ele>
      </trkpt>
      <trkpt lat="48.13823" lon="6.43299">
        <ele>460.42578125</ele>
      </trkpt>
      <trkpt lat="48.13885" lon="6.43401">
        <ele>458.3203125</ele>
      </trkpt>
      <trkpt lat="48.13936" lon="6.43459">
        <ele>460.953125</ele>
      </trkpt>
      <trkpt lat="48.13955" lon="6.4358">
        <ele>460.859375</ele>
      </trkpt>
      <trkpt lat="48.13944" lon="6.43712">
        <ele>458.13671875</ele>
      </trkpt>
      <trkpt lat="48.13931" lon="6.43829">
        <ele>454.01171875</ele>
      </trkpt>
      <trkpt lat="48.13942" lon="6.43931">
        <ele>453.671875</ele>
      </trkpt>
      <trkpt lat="48.13952" lon="6.44032">
        <ele>450.52734375</ele>
      </trkpt>
      <trkpt lat="48.1395" lon="6.44086">
        <ele>444.5078125</ele>
      </trkpt>
      <trkpt lat="48.13934" lon="6.44231">
        <ele>426.58984375</ele>
      </trkpt>
      <trkpt lat="48.13925" lon="6.44355">
        <ele>406.25390625</ele>
      </trkpt>
      <trkpt lat="48.1392" lon="6.44441">
        <ele>392.83984375</ele>
      </trkpt>
      <trkpt lat="48.13909" lon="6.44503">
        <ele>387.984375</ele>
      </trkpt>
      <trkpt lat="48.13922" lon="6.44577">
        <ele>383.16796875</ele>
      </trkpt>
      <trkpt lat="48.13976" lon="6.44814">
        <ele>374.1484375</ele>
      </trkpt>
      <trkpt lat="48.14119" lon="6.45017">
        <ele>379.48046875</ele>
      </trkpt>
      <trkpt lat="48.14218" lon="6.45138">
        <ele>370.76953125</ele>
      </trkpt>
      <trkpt lat="48.14305" lon="6.45247">
        <ele>369.26953125</ele>
      </trkpt>
      <trkpt lat="48.14358" lon="6.4527">
        <ele>367.859375</ele>
      </trkpt>
      <trkpt lat="48.14385" lon="6.45259">
        <ele>368.70703125</ele>
      </trkpt>
      <trkpt lat="48.14404" lon="6.45243">
        <ele>370.1015625</ele>
      </trkpt>
      <trkpt lat="48.1442" lon="6.45196">
        <ele>374.5859375</ele>
      </trkpt>
      <trkpt lat="48.14439" lon="6.452">
        <ele>374.0078125</ele>
      </trkpt>
      <trkpt lat="48.1448" lon="6.45212">
        <ele>372.53515625</ele>
      </trkpt>
      <trkpt lat="48.14523" lon="6.45161">
        <ele>376.25390625</ele>
      </trkpt>
      <trkpt lat="48.14601" lon="6.4515">
        <ele>375.8515625</ele>
      </trkpt>
      <trkpt lat="48.14625" lon="6.45095">
        <ele>378.94140625</ele>
      </trkpt>
      <trkpt lat="48.14623" lon="6.45025">
        <ele>382.3671875</ele>
      </trkpt>
      <trkpt lat="48.14596" lon="6.44955">
        <ele>387</ele>
      </trkpt>
      <trkpt lat="48.14547" lon="6.44916">
        <ele>391.63671875</ele>
      </trkpt>
      <trkpt lat="48.14528" lon="6.44873">
        <ele>395</ele>
      </trkpt>
      <trkpt lat="48.14523" lon="6.44846">
        <ele>396.3671875</ele>
      </trkpt>
      <trkpt lat="48.14523" lon="6.44822">
        <ele>397.2421875</ele>
      </trkpt>
      <trkpt lat="48.14555" lon="6.44772">
        <ele>395.23046875</ele>
      </trkpt>
      <trkpt lat="48.14544" lon="6.4467">
        <ele>399.12109375</ele>
      </trkpt>
      <trkpt lat="48.14593" lon="6.44585">
        <ele>390.9765625</ele>
      </trkpt>
      <trkpt lat="48.14585" lon="6.44549">
        <ele>392.5390625</ele>
      </trkpt>
      <trkpt lat="48.14536" lon="6.44464">
        <ele>400.87109375</ele>
      </trkpt>
      <trkpt lat="48.14558" lon="6.44374">
        <ele>396.34765625</ele>
      </trkpt>
      <trkpt lat="48.14585" lon="6.44226">
        <ele>391.08203125</ele>
      </trkpt>
      <trkpt lat="48.14566" lon="6.4416">
        <ele>391.9921875</ele>
      </trkpt>
      <trkpt lat="48.14563" lon="6.44132">
        <ele>391.79296875</ele>
      </trkpt>
      <trkpt lat="48.14577" lon="6.44074">
        <ele>389.28515625</ele>
      </trkpt>
      <trkpt lat="48.14558" lon="6.44023">
        <ele>390.41015625</ele>
      </trkpt>
      <trkpt lat="48.14534" lon="6.43973">
        <ele>392.015625</ele>
      </trkpt>
      <trkpt lat="48.14507" lon="6.43973">
        <ele>394.8984375</ele>
      </trkpt>
      <trkpt lat="48.14477" lon="6.43969">
        <ele>397.9765625</ele>
      </trkpt>
      <trkpt lat="48.14453" lon="6.43965">
        <ele>400.46875</ele>
      </trkpt>
      <trkpt lat="48.14439" lon="6.43914">
        <ele>400.58203125</ele>
      </trkpt>
      <trkpt lat="48.14442" lon="6.43867">
        <ele>399.08203125</ele>
      </trkpt>
      <trkpt lat="48.14469" lon="6.43825">
        <ele>395.2421875</ele>
      </trkpt>
      <trkpt lat="48.1452" lon="6.43801">
        <ele>389.53515625</ele>
      </trkpt>
      <trkpt lat="48.14555" lon="6.43766">
        <ele>385.76953125</ele>
      </trkpt>
      <trkpt lat="48.14563" lon="6.43715">
        <ele>386.8828125</ele>
      </trkpt>
      <trkpt lat="48.14601" lon="6.43665">
        <ele>384.484375</ele>
      </trkpt>
      <trkpt lat="48.14599" lon="6.43579">
        <ele>387.484375</ele>
      </trkpt>
      <trkpt lat="48.14583" lon="6.43458">
        <ele>389.1484375</ele>
      </trkpt>
      <trkpt lat="48.14575" lon="6.43404">
        <ele>389.69140625</ele>
      </trkpt>
      <trkpt lat="48.14586" lon="6.43353">
        <ele>387.1796875</ele>
      </trkpt>
      <trkpt lat="48.14629" lon="6.43392">
        <ele>380.59375</ele>
      </trkpt>
      <trkpt lat="48.1468" lon="6.43482">
        <ele>381.66015625</ele>
      </trkpt>
      <trkpt lat="48.14737" lon="6.43579">
        <ele>379.18359375</ele>
      </trkpt>
      <trkpt lat="48.14756" lon="6.4363">
        <ele>377.09375</ele>
      </trkpt>
      <trkpt lat="48.1478" lon="6.43778">
        <ele>371.9375</ele>
      </trkpt>
      <trkpt lat="48.14831" lon="6.43875">
        <ele>367.66796875</ele>
      </trkpt>
      <trkpt lat="48.14877" lon="6.43992">
        <ele>363.4375</ele>
      </trkpt>
      <trkpt lat="48.14909" lon="6.44047">
        <ele>365.046875</ele>
      </trkpt>
      <trkpt lat="48.14931" lon="6.44175">
        <ele>363.67578125</ele>
      </trkpt>
      <trkpt lat="48.14982" lon="6.44316">
        <ele>363.6484375</ele>
      </trkpt>
      <trkpt lat="48.15014" lon="6.44421">
        <ele>361.3671875</ele>
      </trkpt>
      <trkpt lat="48.15041" lon="6.44401">
        <ele>362.453125</ele>
      </trkpt>
      <trkpt lat="48.15088" lon="6.44386">
        <ele>363.98046875</ele>
      </trkpt>
      <trkpt lat="48.15108" lon="6.44365">
        <ele>364.99609375</ele>
      </trkpt>
      <trkpt lat="48.15115" lon="6.44323">
        <ele>366.98046875</ele>
      </trkpt>
      <trkpt lat="48.15108" lon="6.44282">
        <ele>369.140625</ele>
      </trkpt>
      <trkpt lat="48.15091" lon="6.44227">
        <ele>372.34765625</ele>
      </trkpt>
      <trkpt lat="48.15077" lon="6.44188">
        <ele>373.6796875</ele>
      </trkpt>
      <trkpt lat="48.15057" lon="6.44134">
        <ele>374.33984375</ele>
      </trkpt>
      <trkpt lat="48.15088" lon="6.44056">
        <ele>379.453125</ele>
      </trkpt>
      <trkpt lat="48.15142" lon="6.44045">
        <ele>377.03515625</ele>
      </trkpt>
      <trkpt lat="48.1516" lon="6.43975">
        <ele>379.859375</ele>
      </trkpt>
      <trkpt lat="48.15215" lon="6.439">
        <ele>383.30078125</ele>
      </trkpt>
      <trkpt lat="48.15241" lon="6.43799">
        <ele>390.0859375</ele>
      </trkpt>
      <trkpt lat="48.15205" lon="6.43773">
        <ele>396.19921875</ele>
      </trkpt>
      <trkpt lat="48.15203" lon="6.43705">
        <ele>401.23828125</ele>
      </trkpt>
      <trkpt lat="48.15246" lon="6.43598">
        <ele>403.9140625</ele>
      </trkpt>
      <trkpt lat="48.15233" lon="6.43536">
        <ele>408.65625</ele>
      </trkpt>
      <trkpt lat="48.15242" lon="6.43443">
        <ele>407.6015625</ele>
      </trkpt>
      <trkpt lat="48.15271" lon="6.43302">
        <ele>404.921875</ele>
      </trkpt>
      <trkpt lat="48.15303" lon="6.43152">
        <ele>408.23046875</ele>
      </trkpt>
      <trkpt lat="48.15418" lon="6.43089">
        <ele>409.3671875</ele>
      </trkpt>
      <trkpt lat="48.15505" lon="6.43042">
        <ele>412.578125</ele>
      </trkpt>
      <trkpt lat="48.15553" lon="6.43045">
        <ele>414.94921875</ele>
      </trkpt>
      <trkpt lat="48.15595" lon="6.43061">
        <ele>418.11328125</ele>
      </trkpt>
      <trkpt lat="48.15609" lon="6.44157">
        <ele>403.4140625</ele>
      </trkpt>
      <trkpt lat="48.15449" lon="6.44277">
        <ele>380.17578125</ele>
      </trkpt>
      <trkpt lat="48.15427" lon="6.44682">
        <ele>359.421875</ele>
      </trkpt>
      <trkpt lat="48.1548" lon="6.44775">
        <ele>348.58984375</ele>
      </trkpt>
      <trkpt lat="48.15559" lon="6.44804">
        <ele>346.15234375</ele>
      </trkpt>
      <trkpt lat="48.15736" lon="6.44729">
        <ele>362.703125</ele>
      </trkpt>
      <trkpt lat="48.15821" lon="6.44651">
        <ele>366.28515625</ele>
      </trkpt>
      <trkpt lat="48.15848" lon="6.44568">
        <ele>372.8671875</ele>
      </trkpt>
      <trkpt lat="48.15841" lon="6.44432">
        <ele>388.578125</ele>
      </trkpt>
      <trkpt lat="48.15783" lon="6.44357">
        <ele>403.62109375</ele>
      </trkpt>
      <trkpt lat="48.15796" lon="6.44196">
        <ele>410.20703125</ele>
      </trkpt>
      <trkpt lat="48.15826" lon="6.44064">
        <ele>413.74609375</ele>
      </trkpt>
      <trkpt lat="48.15841" lon="6.43915">
        <ele>418.8359375</ele>
      </trkpt>
      <trkpt lat="48.15835" lon="6.4378">
        <ele>424.8515625</ele>
      </trkpt>
      <trkpt lat="48.15875" lon="6.4384">
        <ele>415.50390625</ele>
      </trkpt>
      <trkpt lat="48.15889" lon="6.43913">
        <ele>409.359375</ele>
      </trkpt>
      <trkpt lat="48.15902" lon="6.44022">
        <ele>400.625</ele>
      </trkpt>
      <trkpt lat="48.15938" lon="6.44116">
        <ele>385.70703125</ele>
      </trkpt>
      <trkpt lat="48.15927" lon="6.44214">
        <ele>380.484375</ele>
      </trkpt>
      <trkpt lat="48.15959" lon="6.44321">
        <ele>369.76171875</ele>
      </trkpt>
      <trkpt lat="48.15983" lon="6.44422">
        <ele>364.41015625</ele>
      </trkpt>
      <trkpt lat="48.1602" lon="6.44526">
        <ele>360.37890625</ele>
      </trkpt>
      <trkpt lat="48.16062" lon="6.44581">
        <ele>356.76171875</ele>
      </trkpt>
      <trkpt lat="48.1609" lon="6.44617">
        <ele>353.078125</ele>
      </trkpt>
      <trkpt lat="48.1631" lon="6.4456">
        <ele>361.76171875</ele>
      </trkpt>
      <trkpt lat="48.16437" lon="6.44482">
        <ele>375.15234375</ele>
      </trkpt>
      <trkpt lat="48.16452" lon="6.44417">
        <ele>409.94140625</ele>
      </trkpt>
      <trkpt lat="48.16441" lon="6.44339">
        <ele>395.703125</ele>
      </trkpt>
      <trkpt lat="48.16428" lon="6.44206">
        <ele>367.4921875</ele>
      </trkpt>
      <trkpt lat="48.16427" lon="6.43893">
        <ele>406.73046875</ele>
      </trkpt>
      <trkpt lat="48.16373" lon="6.43621">
        <ele>362.68359375</ele>
      </trkpt>
      <trkpt lat="48.16532" lon="6.43472">
        <ele>364.03125</ele>
      </trkpt>
      <trkpt lat="48.16724" lon="6.43582">
        <ele>421.2890625</ele>
      </trkpt>
      <trkpt lat="48.16762" lon="6.43687">
        <ele>369.234375</ele>
      </trkpt>
      <trkpt lat="48.16829" lon="6.43601">
        <ele>417.43359375</ele>
      </trkpt>
      <trkpt lat="48.16826" lon="6.43578">
        <ele>417.43359375</ele>
      </trkpt>
      <trkpt lat="48.16788" lon="6.43484">
        <ele>422.15625</ele>
      </trkpt>
      <trkpt lat="48.16702" lon="6.4343">
        <ele>420.62109375</ele>
      </trkpt>
      <trkpt lat="48.16778" lon="6.43359">
        <ele>415.02734375</ele>
      </trkpt>
      <trkpt lat="48.16778" lon="6.43363">
        <ele>417.0078125</ele>
      </trkpt>
      <trkpt lat="48.16749" lon="6.4313">
        <ele>414.26953125</ele>
      </trkpt>
      <trkpt lat="48.16738" lon="6.43115">
        <ele>414.83984375</ele>
      </trkpt>
      <trkpt lat="48.16817" lon="6.42912">
        <ele>416.85546875</ele>
      </trkpt>
      <trkpt lat="48.16856" lon="6.4275">
        <ele>421.44921875</ele>
      </trkpt>
      <trkpt lat="48.16855" lon="6.42624">
        <ele>426.2578125</ele>
      </trkpt>
      <trkpt lat="48.16884" lon="6.42511">
        <ele>425.95703125</ele>
      </trkpt>
      <trkpt lat="48.169" lon="6.42393">
        <ele>422.671875</ele>
      </trkpt>
      <trkpt lat="48.16913" lon="6.42311">
        <ele>415.61328125</ele>
      </trkpt>
      <trkpt lat="48.16929" lon="6.42201">
        <ele>405.8046875</ele>
      </trkpt>
      <trkpt lat="48.16937" lon="6.42119">
        <ele>396.40625</ele>
      </trkpt>
      <trkpt lat="48.16947" lon="6.42058">
        <ele>388.81640625</ele>
      </trkpt>
      <trkpt lat="48.16925" lon="6.42018">
        <ele>388.87890625</ele>
      </trkpt>
      <trkpt lat="48.16913" lon="6.42012">
        <ele>387.46484375</ele>
      </trkpt>
      <trkpt lat="48.16891" lon="6.41933">
        <ele>387.82421875</ele>
      </trkpt>
      <trkpt lat="48.16896" lon="6.41901">
        <ele>387.20703125</ele>
      </trkpt>
      <trkpt lat="48.16896" lon="6.41964">
        <ele>386.61328125</ele>
      </trkpt>
      <trkpt lat="48.16947" lon="6.42061">
        <ele>387.42578125</ele>
      </trkpt>
      <trkpt lat="48.16928" lon="6.42202">
        <ele>387.79296875</ele>
      </trkpt>
      <trkpt lat="48.16883" lon="6.42512">
        <ele>426.0546875</ele>
      </trkpt>
      <trkpt lat="48.16843" lon="6.42386">
        <ele>426.453125</ele>
      </trkpt>
      <trkpt lat="48.16823" lon="6.42331">
        <ele>422.3828125</ele>
      </trkpt>
      <trkpt lat="48.16778" lon="6.42257">
        <ele>415.71875</ele>
      </trkpt>
      <trkpt lat="48.16747" lon="6.42242">
        <ele>413.73828125</ele>
      </trkpt>
      <trkpt lat="48.16664" lon="6.42257">
        <ele>414.30078125</ele>
      </trkpt>
      <trkpt lat="48.16615" lon="6.423">
        <ele>420.609375</ele>
      </trkpt>
      <trkpt lat="48.16577" lon="6.42321">
        <ele>423.8203125</ele>
      </trkpt>
      <trkpt lat="48.1653" lon="6.42384">
        <ele>427.578125</ele>
      </trkpt>
      <trkpt lat="48.16488" lon="6.42413">
        <ele>426.76171875</ele>
      </trkpt>
      <trkpt lat="48.16445" lon="6.42454">
        <ele>425.1171875</ele>
      </trkpt>
      <trkpt lat="48.16424" lon="6.42497">
        <ele>428.0234375</ele>
      </trkpt>
      <trkpt lat="48.16425" lon="6.42659">
        <ele>444.26171875</ele>
      </trkpt>
      <trkpt lat="48.16432" lon="6.42707">
        <ele>445.8671875</ele>
      </trkpt>
      <trkpt lat="48.164" lon="6.42799">
        <ele>450.15625</ele>
      </trkpt>
      <trkpt lat="48.16373" lon="6.42783">
        <ele>449.95703125</ele>
      </trkpt>
      <trkpt lat="48.16309" lon="6.42838">
        <ele>449.72265625</ele>
      </trkpt>
      <trkpt lat="48.16155" lon="6.42812">
        <ele>452.7421875</ele>
      </trkpt>
      <trkpt lat="48.16067" lon="6.42743">
        <ele>449.08984375</ele>
      </trkpt>
      <trkpt lat="48.15982" lon="6.42696">
        <ele>446.057861</ele>
        <time>2008-01-22T00:00:00Z</time>
      </trkpt>
      <trkpt lat="48.15999" lon="6.42653">
        <ele>445.328491</ele>
        <time>2008-01-22T00:00:00Z</time>
      </trkpt>
      <trkpt lat="48.16026" lon="6.42618">
        <ele>447.31640625</ele>
      </trkpt>
      <trkpt lat="48.1604" lon="6.42536">
        <ele>446.28125</ele>
      </trkpt>
      <trkpt lat="48.16113" lon="6.42442">
        <ele>443.28125</ele>
      </trkpt>
      <trkpt lat="48.16188" lon="6.42302">
        <ele>443.35546875</ele>
      </trkpt>
      <trkpt lat="48.16243" lon="6.42238">
        <ele>441.79296875</ele>
      </trkpt>
      <trkpt lat="48.16276" lon="6.4214">
        <ele>439.24609375</ele>
      </trkpt>
      <trkpt lat="48.16296" lon="6.41881">
        <ele>433.47265625</ele>
      </trkpt>
      <trkpt lat="48.16359" lon="6.41754">
        <ele>436.93359375</ele>
      </trkpt>
      <trkpt lat="48.16246" lon="6.41817">
        <ele>424.37890625</ele>
      </trkpt>
      <trkpt lat="48.161" lon="6.42181">
        <ele>438.90625</ele>
      </trkpt>
      <trkpt lat="48.16018" lon="6.42302">
        <ele>440.29296875</ele>
      </trkpt>
      <trkpt lat="48.15999" lon="6.42351">
        <ele>442.18359375</ele>
      </trkpt>
      <trkpt lat="48.15945" lon="6.42477">
        <ele>447.9375</ele>
      </trkpt>
      <trkpt lat="48.15944" lon="6.42481">
        <ele>447.193481</ele>
        <time>2008-01-22T00:00:00Z</time>
      </trkpt>
      <trkpt lat="48.1585" lon="6.42497">
        <ele>446.730896</ele>
        <time>2008-01-22T00:00:00Z</time>
      </trkpt>
      <trkpt lat="48.15838" lon="6.4246">
        <ele>447.490692</ele>
        <time>2008-01-22T00:00:00Z</time>
      </trkpt>
      <trkpt lat="48.15836" lon="6.4242">
        <ele>446.50058</ele>
        <time>2008-01-22T00:00:00Z</time>
      </trkpt>
      <trkpt lat="48.15832" lon="6.42396">
        <ele>446.605072</ele>
        <time>2008-01-22T00:00:00Z</time>
      </trkpt>
      <trkpt lat="48.15805" lon="6.42347">
        <ele>449.738953</ele>
        <time>2008-01-22T00:00:00Z</time>
      </trkpt>
      <trkpt lat="48.15771" lon="6.42294">
        <ele>451.372467</ele>
        <time>2008-01-22T00:00:00Z</time>
      </trkpt>
      <trkpt lat="48.15731" lon="6.42216">
        <ele>452.209229</ele>
        <time>2008-01-22T00:00:00Z</time>
      </trkpt>
      <trkpt lat="48.15688" lon="6.42159">
        <ele>452.99939</ele>
        <time>2008-01-22T00:00:00Z</time>
      </trkpt>
      <trkpt lat="48.15679" lon="6.42138">
        <ele>453.815704</ele>
        <time>2008-01-22T00:00:00Z</time>
      </trkpt>
      <trkpt lat="48.15677" lon="6.42111">
        <ele>453.775726</ele>
        <time>2008-01-22T00:00:00Z</time>
      </trkpt>
      <trkpt lat="48.15693" lon="6.42041">
        <ele>453.078094</ele>
        <time>2008-01-22T00:00:00Z</time>
      </trkpt>
      <trkpt lat="48.15697" lon="6.41994">
        <ele>452.345306</ele>
        <time>2008-01-22T00:00:00Z</time>
      </trkpt>
      <trkpt lat="48.15686" lon="6.41947">
        <ele>454.557343</ele>
        <time>2008-01-22T00:00:00Z</time>
      </trkpt>
      <trkpt lat="48.15669" lon="6.41915">
        <ele>455.811646</ele>
        <time>2008-01-22T00:00:00Z</time>
      </trkpt>
      <trkpt lat="48.15624" lon="6.41874">
        <ele>457.490479</ele>
        <time>2008-01-22T00:00:00Z</time>
      </trkpt>
      <trkpt lat="48.15594" lon="6.41839">
        <ele>458.462402</ele>
        <time>2008-01-22T00:00:00Z</time>
      </trkpt>
      <trkpt lat="48.15553" lon="6.41775">
        <ele>460.354279</ele>
        <time>2008-01-22T00:00:00Z</time>
      </trkpt>
      <trkpt lat="48.15543" lon="6.41742">
        <ele>461.451141</ele>
        <time>2008-01-22T00:00:00Z</time>
      </trkpt>
      <trkpt lat="48.15542" lon="6.41706">
        <ele>461.92749</ele>
        <time>2008-01-22T00:00:00Z</time>
      </trkpt>
      <trkpt lat="48.1555" lon="6.41642">
        <ele>461.537964</ele>
        <time>2008-01-22T00:00:00Z</time>
      </trkpt>
      <trkpt lat="48.1555" lon="6.41609">
        <ele>461.708923</ele>
        <time>2008-01-22T00:00:00Z</time>
      </trkpt>
      <trkpt lat="48.15539" lon="6.41572">
        <ele>462.42746</ele>
        <time>2008-01-22T00:00:00Z</time>
      </trkpt>
      <trkpt lat="48.15466" lon="6.41415">
        <ele>464.655151</ele>
        <time>2008-01-22T00:00:00Z</time>
      </trkpt>
      <trkpt lat="48.15436" lon="6.41319">
        <ele>463.748047</ele>
        <time>2008-01-22T00:00:00Z</time>
      </trkpt>
      <trkpt lat="48.15351" lon="6.41166">
        <ele>463.813324</ele>
        <time>2008-01-22T00:00:00Z</time>
      </trkpt>
      <trkpt lat="48.15345" lon="6.4114">
        <ele>463.517395</ele>
        <time>2008-01-22T00:00:00Z</time>
      </trkpt>
      <trkpt lat="48.15342" lon="6.41115">
        <ele>464.705597</ele>
        <time>2008-01-22T00:00:00Z</time>
      </trkpt>
      <trkpt lat="48.15349" lon="6.41029">
        <ele>465.406647</ele>
        <time>2008-01-22T00:00:00Z</time>
      </trkpt>
      <trkpt lat="48.15344" lon="6.40964">
        <ele>465.104919</ele>
        <time>2008-01-22T00:00:00Z</time>
      </trkpt>
      <trkpt lat="48.15336" lon="6.40902">
        <ele>462.814758</ele>
        <time>2008-01-22T00:00:00Z</time>
      </trkpt>
      <trkpt lat="48.15327" lon="6.40874">
        <ele>461.296722</ele>
        <time>2008-01-22T00:00:00Z</time>
      </trkpt>
      <trkpt lat="48.15293" lon="6.40817">
        <ele>458.440491</ele>
        <time>2008-01-22T00:00:00Z</time>
      </trkpt>
      <trkpt lat="48.1533" lon="6.40771">
        <ele>453.692047</ele>
        <time>2008-01-22T00:00:00Z</time>
      </trkpt>
      <trkpt lat="48.15349" lon="6.40743">
        <ele>450.352112</ele>
        <time>2008-01-22T00:00:00Z</time>
      </trkpt>
      <trkpt lat="48.15378" lon="6.40736">
        <ele>448.001648</ele>
        <time>2008-01-22T00:00:00Z</time>
      </trkpt>
      <trkpt lat="48.15416" lon="6.40703">
        <ele>444.889954</ele>
        <time>2008-01-22T00:00:00Z</time>
      </trkpt>
      <trkpt lat="48.15443" lon="6.40671">
        <ele>439.061859</ele>
        <time>2008-01-22T00:00:00Z</time>
      </trkpt>
      <trkpt lat="48.15495" lon="6.40627">
        <ele>433.13443</ele>
        <time>2008-01-22T00:00:00Z</time>
      </trkpt>
      <trkpt lat="48.15515" lon="6.40594">
        <ele>429.250183</ele>
        <time>2008-01-22T00:00:00Z</time>
      </trkpt>
      <trkpt lat="48.15547" lon="6.40573">
        <ele>428.103333</ele>
        <time>2008-01-22T00:00:00Z</time>
      </trkpt>
      <trkpt lat="48.15557" lon="6.40549">
        <ele>424.35672</ele>
        <time>2008-01-22T00:00:00Z</time>
      </trkpt>
      <trkpt lat="48.15592" lon="6.40508">
        <ele>423.331665</ele>
        <time>2008-01-22T00:00:00Z</time>
      </trkpt>
      <trkpt lat="48.1564" lon="6.40458">
        <ele>419.658966</ele>
        <time>2008-01-22T00:00:00Z</time>
      </trkpt>
      <trkpt lat="48.15691" lon="6.40418">
        <ele>412.345673</ele>
        <time>2008-01-22T00:00:00Z</time>
      </trkpt>
      <trkpt lat="48.15773" lon="6.40363">
        <ele>402.161957</ele>
        <time>2008-01-22T00:00:00Z</time>
      </trkpt>
      <trkpt lat="48.15827" lon="6.40342">
        <ele>402.028198</ele>
        <time>2008-01-22T00:00:00Z</time>
      </trkpt>
      <trkpt lat="48.15887" lon="6.40346">
        <ele>399.647461</ele>
        <time>2008-01-22T00:00:00Z</time>
      </trkpt>
      <trkpt lat="48.15962" lon="6.4032">
        <ele>385.106293</ele>
        <time>2008-01-22T00:00:00Z</time>
      </trkpt>
      <trkpt lat="48.15969" lon="6.40293">
        <ele>385.585724</ele>
        <time>2008-01-22T00:00:00Z</time>
      </trkpt>
      <trkpt lat="48.1598" lon="6.40293">
        <ele>386.19223</ele>
        <time>2008-01-22T00:00:00Z</time>
      </trkpt>
      <trkpt lat="48.16008" lon="6.4032">
        <ele>384.285034</ele>
        <time>2008-01-22T00:00:00Z</time>
      </trkpt>
      <trkpt lat="48.16049" lon="6.40375">
        <ele>384.421448</ele>
        <time>2008-01-22T00:00:00Z</time>
      </trkpt>
      <trkpt lat="48.16073" lon="6.40434">
        <ele>386.654999</ele>
        <time>2008-01-22T00:00:00Z</time>
      </trkpt>
      <trkpt lat="48.16103" lon="6.40421">
        <ele>399.41217</ele>
        <time>2008-01-22T00:00:00Z</time>
      </trkpt>
      <trkpt lat="48.16123" lon="6.40499">
        <ele>391.464966</ele>
        <time>2008-01-22T00:00:00Z</time>
      </trkpt>
      <trkpt lat="48.1613" lon="6.40578">
        <ele>390.39563</ele>
        <time>2008-01-22T00:00:00Z</time>
      </trkpt>
      <trkpt lat="48.16147" lon="6.40648">
        <ele>388.312286</ele>
        <time>2008-01-22T00:00:00Z</time>
      </trkpt>
      <trkpt lat="48.16185" lon="6.40727">
        <ele>388.916138</ele>
        <time>2008-01-22T00:00:00Z</time>
      </trkpt>
      <trkpt lat="48.16255" lon="6.40845">
        <ele>383.84549</ele>
        <time>2008-01-22T00:00:00Z</time>
      </trkpt>
      <trkpt lat="48.16284" lon="6.40892">
        <ele>383.614288</ele>
        <time>2008-01-22T00:00:00Z</time>
      </trkpt>
      <trkpt lat="48.16376" lon="6.40803">
        <ele>408.017609</ele>
        <time>2008-01-22T00:00:00Z</time>
      </trkpt>
      <trkpt lat="48.16431" lon="6.40551">
        <ele>444.557068</ele>
        <time>2008-01-22T00:00:00Z</time>
      </trkpt>
      <trkpt lat="48.16445" lon="6.40497">
        <ele>449.29126</ele>
        <time>2008-01-22T00:00:00Z</time>
      </trkpt>
      <trkpt lat="48.16466" lon="6.40443">
        <ele>450.614746</ele>
        <time>2008-01-22T00:00:00Z</time>
      </trkpt>
      <trkpt lat="48.16487" lon="6.40391">
        <ele>450.168213</ele>
        <time>2008-01-22T00:00:00Z</time>
      </trkpt>
      <trkpt lat="48.16509" lon="6.40349">
        <ele>448.707672</ele>
        <time>2008-01-22T00:00:00Z</time>
      </trkpt>
      <trkpt lat="48.16553" lon="6.4028">
        <ele>445.514404</ele>
        <time>2008-01-22T00:00:00Z</time>
      </trkpt>
      <trkpt lat="48.16571" lon="6.40236">
        <ele>443.274994</ele>
        <time>2008-01-22T00:00:00Z</time>
      </trkpt>
      <trkpt lat="48.16576" lon="6.40191">
        <ele>441.046967</ele>
        <time>2008-01-22T00:00:00Z</time>
      </trkpt>
      <trkpt lat="48.16576" lon="6.4016">
        <ele>439.55481</ele>
        <time>2008-01-22T00:00:00Z</time>
      </trkpt>
      <trkpt lat="48.16577" lon="6.40131">
        <ele>437.85672</ele>
        <time>2008-01-22T00:00:00Z</time>
      </trkpt>
      <trkpt lat="48.16621" lon="6.4015">
        <ele>436.695557</ele>
        <time>2008-01-22T00:00:00Z</time>
      </trkpt>
      <trkpt lat="48.1671" lon="6.4016">
        <ele>433.624542</ele>
        <time>2008-01-22T00:00:00Z</time>
      </trkpt>
      <trkpt lat="48.16813" lon="6.40185">
        <ele>428.236786</ele>
        <time>2008-01-22T00:00:00Z</time>
      </trkpt>
      <trkpt lat="48.16876" lon="6.40184">
        <ele>423.209625</ele>
        <time>2008-01-22T00:00:00Z</time>
      </trkpt>
      <trkpt lat="48.16955" lon="6.40172">
        <ele>417.97583</ele>
        <time>2008-01-22T00:00:00Z</time>
      </trkpt>
      <trkpt lat="48.17039" lon="6.4017">
        <ele>414.678955</ele>
        <time>2008-01-22T00:00:00Z</time>
      </trkpt>
      <trkpt lat="48.17094" lon="6.40176">
        <ele>411.861664</ele>
        <time>2008-01-22T00:00:00Z</time>
      </trkpt>
      <trkpt lat="48.17133" lon="6.40166">
        <ele>410.835938</ele>
        <time>2008-01-22T00:00:00Z</time>
      </trkpt>
      <trkpt lat="48.17152" lon="6.4016">
        <ele>410.573792</ele>
        <time>2008-01-22T00:00:00Z</time>
      </trkpt>
      <trkpt lat="48.17136" lon="6.4008">
        <ele>410.017761</ele>
        <time>2008-01-22T00:00:00Z</time>
      </trkpt>
      <trkpt lat="48.17095" lon="6.40037">
        <ele>410.375122</ele>
        <time>2008-01-22T00:00:00Z</time>
      </trkpt>
      <trkpt lat="48.17072" lon="6.4003">
        <ele>411.185486</ele>
        <time>2008-01-22T00:00:00Z</time>
      </trkpt>
      <trkpt lat="48.1706" lon="6.4002">
        <ele>411.278839</ele>
        <time>2008-01-22T00:00:00Z</time>
      </trkpt>
      <trkpt lat="48.17046" lon="6.4">
        <ele>410.750641</ele>
        <time>2008-01-22T00:00:00Z</time>
      </trkpt>
      <trkpt lat="48.16939" lon="6.39908">
        <ele>405.157379</ele>
        <time>2008-01-22T00:00:00Z</time>
      </trkpt>
      <trkpt lat="48.16908" lon="6.39881">
        <ele>407.809662</ele>
        <time>2008-01-22T00:00:00Z</time>
      </trkpt>
      <trkpt lat="48.16913" lon="6.39789">
        <ele>407.37265</ele>
        <time>2008-01-22T00:00:00Z</time>
      </trkpt>
      <trkpt lat="48.16984" lon="6.39443">
        <ele>401.080078</ele>
        <time>2008-01-22T00:00:00Z</time>
      </trkpt>
      <trkpt lat="48.16989" lon="6.3916">
        <ele>392.420624</ele>
        <time>2008-01-22T00:00:00Z</time>
      </trkpt>
      <trkpt lat="48.16982" lon="6.39129">
        <ele>392.194733</ele>
        <time>2008-01-22T00:00:00Z</time>
      </trkpt>
      <trkpt lat="48.16902" lon="6.39092">
        <ele>396.0354</ele>
        <time>2008-01-22T00:00:00Z</time>
      </trkpt>
      <trkpt lat="48.16584" lon="6.39274">
        <ele>411.226074</ele>
        <time>2008-01-22T00:00:00Z</time>
      </trkpt>
      <trkpt lat="48.16427" lon="6.39842">
        <ele>438.802826</ele>
        <time>2008-01-22T00:00:00Z</time>
      </trkpt>
      <trkpt lat="48.16399" lon="6.39781">
        <ele>434.821808</ele>
        <time>2008-01-22T00:00:00Z</time>
      </trkpt>
      <trkpt lat="48.16392" lon="6.39727">
        <ele>435.168121</ele>
        <time>2008-01-22T00:00:00Z</time>
      </trkpt>
      <trkpt lat="48.16388" lon="6.39603">
        <ele>439.523407</ele>
        <time>2008-01-22T00:00:00Z</time>
      </trkpt>
      <trkpt lat="48.16382" lon="6.3957">
        <ele>439.612122</ele>
        <time>2008-01-22T00:00:00Z</time>
      </trkpt>
      <trkpt lat="48.16237" lon="6.39331">
        <ele>438.093964</ele>
        <time>2008-01-22T00:00:00Z</time>
      </trkpt>
      <trkpt lat="48.16202" lon="6.3926">
        <ele>437.026428</ele>
        <time>2008-01-22T00:00:00Z</time>
      </trkpt>
      <trkpt lat="48.16083" lon="6.3912">
        <ele>433.097107</ele>
        <time>2008-01-22T00:00:00Z</time>
      </trkpt>
      <trkpt lat="48.15998" lon="6.38997">
        <ele>429.436035</ele>
        <time>2008-01-22T00:00:00Z</time>
      </trkpt>
      <trkpt lat="48.1591" lon="6.3885">
        <ele>430.16333</ele>
        <time>2008-01-22T00:00:00Z</time>
      </trkpt>
      <trkpt lat="48.15966" lon="6.38619">
        <ele>416.581909</ele>
        <time>2008-01-22T00:00:00Z</time>
      </trkpt>
      <trkpt lat="48.15928" lon="6.38547">
        <ele>416.833496</ele>
        <time>2008-01-22T00:00:00Z</time>
      </trkpt>
      <trkpt lat="48.15887" lon="6.38479">
        <ele>416.293671</ele>
        <time>2008-01-22T00:00:00Z</time>
      </trkpt>
      <trkpt lat="48.15825" lon="6.38413">
        <ele>415.458588</ele>
        <time>2008-01-22T00:00:00Z</time>
      </trkpt>
      <trkpt lat="48.15743" lon="6.38341">
        <ele>416.425537</ele>
        <time>2008-01-22T00:00:00Z</time>
      </trkpt>
      <trkpt lat="48.15718" lon="6.38306">
        <ele>417.111511</ele>
        <time>2008-01-22T00:00:00Z</time>
      </trkpt>
      <trkpt lat="48.15709" lon="6.38267">
        <ele>416.941071</ele>
        <time>2008-01-22T00:00:00Z</time>
      </trkpt>
      <trkpt lat="48.15721" lon="6.38225">
        <ele>419.62677</ele>
        <time>2008-01-22T00:00:00Z</time>
      </trkpt>
      <trkpt lat="48.15766" lon="6.38148">
        <ele>423.50061</ele>
        <time>2008-01-22T00:00:00Z</time>
      </trkpt>
      <trkpt lat="48.15802" lon="6.38082">
        <ele>424.676819</ele>
        <time>2008-01-22T00:00:00Z</time>
      </trkpt>
      <trkpt lat="48.15823" lon="6.37977">
        <ele>421.61969</ele>
        <time>2008-01-22T00:00:00Z</time>
      </trkpt>
      <trkpt lat="48.1583" lon="6.3796">
        <ele>420.974213</ele>
        <time>2008-01-22T00:00:00Z</time>
      </trkpt>
      <trkpt lat="48.15846" lon="6.37947">
        <ele>420.597656</ele>
        <time>2008-01-22T00:00:00Z</time>
      </trkpt>
      <trkpt lat="48.15908" lon="6.37944">
        <ele>418.850769</ele>
        <time>2008-01-22T00:00:00Z</time>
      </trkpt>
      <trkpt lat="48.15947" lon="6.37934">
        <ele>418.153564</ele>
        <time>2008-01-22T00:00:00Z</time>
      </trkpt>
      <trkpt lat="48.15957" lon="6.37922">
        <ele>418.147247</ele>
        <time>2008-01-22T00:00:00Z</time>
      </trkpt>
      <trkpt lat="48.15981" lon="6.37891">
        <ele>417.657501</ele>
        <time>2008-01-22T00:00:00Z</time>
      </trkpt>
      <trkpt lat="48.15987" lon="6.37831">
        <ele>414.227753</ele>
        <time>2008-01-22T00:00:00Z</time>
      </trkpt>
      <trkpt lat="48.1597" lon="6.37784">
        <ele>413.069489</ele>
        <time>2008-01-22T00:00:00Z</time>
      </trkpt>
      <trkpt lat="48.15914" lon="6.37648">
        <ele>406.695648</ele>
        <time>2008-01-22T00:00:00Z</time>
      </trkpt>
      <trkpt lat="48.15874" lon="6.37572">
        <ele>403.883698</ele>
        <time>2008-01-22T00:00:00Z</time>
      </trkpt>
      <trkpt lat="48.15871" lon="6.37546">
        <ele>401.741486</ele>
        <time>2008-01-22T00:00:00Z</time>
      </trkpt>
      <trkpt lat="48.1587" lon="6.37529">
        <ele>400.948242</ele>
        <time>2008-01-22T00:00:00Z</time>
      </trkpt>
      <trkpt lat="48.15856" lon="6.37512">
        <ele>400.662323</ele>
        <time>2008-01-22T00:00:00Z</time>
      </trkpt>
      <trkpt lat="48.15857" lon="6.37312">
        <ele>415.445862</ele>
        <time>2008-01-22T00:00:00Z</time>
      </trkpt>
      <trkpt lat="48.15748" lon="6.37368">
        <ele>418.374969</ele>
        <time>2008-01-22T00:00:00Z</time>
      </trkpt>
      <trkpt lat="48.15648" lon="6.37422">
        <ele>424.161591</ele>
        <time>2008-01-22T00:00:00Z</time>
      </trkpt>
      <trkpt lat="48.15625" lon="6.37364">
        <ele>423.302643</ele>
        <time>2008-01-22T00:00:00Z</time>
      </trkpt>
      <trkpt lat="48.15611" lon="6.37265">
        <ele>418.778473</ele>
        <time>2008-01-22T00:00:00Z</time>
      </trkpt>
      <trkpt lat="48.15575" lon="6.372">
        <ele>414.812347</ele>
        <time>2008-01-22T00:00:00Z</time>
      </trkpt>
      <trkpt lat="48.1554" lon="6.3707">
        <ele>408.299438</ele>
        <time>2008-01-22T00:00:00Z</time>
      </trkpt>
      <trkpt lat="48.15507" lon="6.36896">
        <ele>399.300018</ele>
        <time>2008-01-22T00:00:00Z</time>
      </trkpt>
      <trkpt lat="48.15502" lon="6.3683">
        <ele>398.450867</ele>
        <time>2008-01-22T00:00:00Z</time>
      </trkpt>
      <trkpt lat="48.15486" lon="6.36781">
        <ele>396.017853</ele>
        <time>2008-01-22T00:00:00Z</time>
      </trkpt>
      <trkpt lat="48.15483" lon="6.36723">
        <ele>393.658539</ele>
        <time>2008-01-22T00:00:00Z</time>
      </trkpt>
      <trkpt lat="48.15464" lon="6.36651">
        <ele>389.052887</ele>
        <time>2008-01-22T00:00:00Z</time>
      </trkpt>
      <trkpt lat="48.15471" lon="6.36617">
        <ele>388.069092</ele>
        <time>2008-01-22T00:00:00Z</time>
      </trkpt>
      <trkpt lat="48.15502" lon="6.3658">
        <ele>388.313934</ele>
        <time>2008-01-22T00:00:00Z</time>
      </trkpt>
      <trkpt lat="48.15617" lon="6.36528">
        <ele>384.804352</ele>
        <time>2008-01-22T00:00:00Z</time>
      </trkpt>
      <trkpt lat="48.15727" lon="6.36484">
        <ele>382.957764</ele>
        <time>2008-01-22T00:00:00Z</time>
      </trkpt>
      <trkpt lat="48.15766" lon="6.36492">
        <ele>392.875702</ele>
        <time>2008-01-22T00:00:00Z</time>
      </trkpt>
      <trkpt lat="48.15767" lon="6.36491">
        <ele>393.61554</ele>
        <time>2008-01-22T00:00:00Z</time>
      </trkpt>
    </trkseg>
  </trk>
</gpx>